QPF
0.00 0.00 0.00 0.00 0.00 0.00 0.00 0.00 0.01 0.01 0.01 0.00 0.00 0.00 0.00 0.00 0.00 0.00 0.00 0.00 0.00 0.00 0.00 0.01 0.02 0.02 0.02 0.01 0.02 0.03 0.05 0.09 0.08 0.06 0.08 0.08 0.04 0.04 0.04 0.04 0.02 0.00 0.01
0.00 0.00 0.00 0.00 0.00 0.00 0.00 0.01 0.01 0.01 0.01 0.00 0.00 0.00 0.01 0.01 0.00 0.00 0.00 0.00 0.00 0.00 0.00 0.01 0.03 0.04 0.03 0.03 0.03 0.04 0.06 0.08 0.08 0.04 0.06 0.05 0.02 0.02 0.04 0.04 0.02 0.01 0.01
0.00 0.00 0.00 0.00 0.00 0.00 0.01 0.02 0.03 0.01 0.01 0.01 0.02 0.02 0.01 0.01 0.00 0.00 0.00 0.00 0.00 0.00 0.00 0.01 0.03 0.04 0.04 0.04 0.04 0.03 0.02 0.02 0.03 0.02 0.03 0.02 0.01 0.01 0.03 0.04 0.02 0.02 0.01
0.00 0.00 0.00 0.00 0.00 0.01 0.02 0.04 0.06 0.03 0.02 0.02 0.03 0.02 0.01 0.01 0.00 0.01 0.01 0.00 0.00 0.01 0.00 0.01 0.03 0.02 0.03 0.05 0.04 0.02 0.01 0.01 0.01 0.02 0.01 0.01 0.01 0.02 0.04 0.05 0.03 0.03 0.02
0.00 0.00 0.00 0.00 0.01 0.01 0.03 0.06 0.07 0.05 0.02 0.01 0.01 0.01 0.01 0.01 0.01 0.02 0.01 0.00 0.00 0.00 0.00 0.01 0.02 0.01 0.01 0.02 0.01 0.01 0.01 0.02 0.05 0.03 0.01 0.00 0.01 0.04 0.05 0.06 0.04 0.03 0.02
0.00 0.00 0.01 0.01 0.01 0.00 0.01 0.04 0.05 0.06 0.04 0.03 0.01 0.00 0.01 0.01 0.01 0.01 0.00 0.00 0.00 0.01 0.00 0.00 0.01 0.01 0.00 0.00 0.00 0.01 0.03 0.03 0.03 0.01 0.01 0.01 0.01 0.03 0.03 0.04 0.04 0.03 0.02
0.00 0.00 0.00 0.02 0.01 0.00 0.01 0.02 0.02 0.03 0.04 0.03 0.01 0.00 0.01 0.01 0.01 0.01 0.00 0.00 0.00 0.00 0.00 0.00 0.00 0.00 0.00 0.00 0.00 0.00 0.00 0.01 0.01 0.00 0.00 0.01 0.02 0.02 0.03 0.02 0.02 0.02 0.02
0.00 0.00 0.00 0.03 0.02 0.00 0.00 0.01 0.01 0.01 0.02 0.01 0.00 0.01 0.01 0.01 0.02 0.02 0.00 0.00 0.00 0.00 0.00 0.00 0.00 0.00 0.00 0.00 0.00 0.00 0.00 0.00 0.00 0.00 0.00 0.02 0.08 0.08 0.04 0.02 0.02 0.02 0.02
0.02 0.01 0.00 0.00 0.01 0.01 0.00 0.00 0.01 0.01 0.01 0.00 0.00 0.00 0.01 0.01 0.01 0.01 0.00 0.00 0.00 0.00 0.00 0.00 0.00 0.00 0.00 0.00 0.00 0.00 0.00 0.00 0.00 0.00 0.00 0.02 0.06 0.06 0.02 0.02 0.02 0.02 0.02
0.02 0.01 0.00 0.00 0.00 0.00 0.00 0.00 0.00 0.01 0.01 0.01 0.01 0.01 0.03 0.02 0.01 0.00 0.00 0.00 0.00 0.00 0.00 0.00 0.00 0.00 0.00 0.00 0.00 0.00 0.00 0.00 0.00 0.01 0.00 0.01 0.01 0.00 0.00 0.00 0.00 0.00 0.00
0.03 0.01 0.01 0.01 0.00 0.00 0.00 0.00 0.00 0.01 0.01 0.01 0.01 0.02 0.02 0.01 0.00 0.00 0.00 0.00 0.00 0.00 0.00 0.00 0.00 0.00 0.00 0.00 0.00 0.00 0.00 0.00 0.00 0.00 0.00 0.00 0.00 0.00 0.00 0.00 0.00 0.00 0.00
0.04 0.05 0.03 0.00 0.00 0.01 0.01 0.00 0.00 0.00 0.00 0.00 0.00 0.01 0.01 0.01 0.00 0.00 0.00 0.00 0.00 0.00 0.00 0.00 0.00 0.00 0.00 0.00 0.00 0.00 0.00 0.00 0.00 0.00 0.00 0.00 0.00 0.00 0.00 0.00 0.00 0.00 0.00
0.01 0.03 0.05 0.02 0.00 0.00 0.01 0.01 0.00 0.00 0.00 0.00 0.00 0.00 0.01 0.01 0.00 0.00 0.00 0.00 0.00 0.00 0.00 0.00 0.00 0.00 0.00 0.00 0.00 0.00 0.00 0.00 0.00 0.00 0.00 0.00 0.00 0.00 0.01 0.00 0.00 0.00 0.00
0.00 0.00 0.02 0.03 0.00 0.00 0.00 0.00 0.00 0.00 0.00 0.00 0.00 0.01 0.01 0.01 0.00 0.00 0.00 0.00 0.00 0.00 0.00 0.00 0.00 0.00 0.00 0.00 0.00 0.00 0.00 0.00 0.00 0.00 0.01 0.01 0.01 0.01 0.01 0.01 0.01 0.01 0.01
0.00 0.00 0.00 0.01 0.01 0.00 0.00 0.00 0.00 0.00 0.00 0.00 0.00 0.00 0.01 0.00 0.00 0.00 0.00 0.00 0.00 0.00 0.00 0.00 0.00 0.00 0.00 0.00 0.00 0.00 0.00 0.00 0.00 0.01 0.02 0.05 0.05 0.03 0.03 0.04 0.03 0.01 0.01
0.00 0.00 0.00 0.00 0.01 0.00 0.00 0.00 0.00 0.00 0.00 0.00 0.00 0.00 0.00 0.00 0.00 0.00 0.00 0.00 0.00 0.00 0.00 0.00 0.00 0.00 0.00 0.00 0.00 0.00 0.00 0.00 0.00 0.01 0.01 0.05 0.14 0.12 0.08 0.07 0.04 0.02 0.01
0.00 0.00 0.00 0.00 0.01 0.00 0.00 0.00 0.00 0.00 0.00 0.00 0.00 0.00 0.00 0.00 0.00 0.00 0.00 0.00 0.00 0.00 0.00 0.00 0.00 0.00 0.00 0.00 0.00 0.00 0.00 0.00 0.00 0.00 0.02 0.02 0.07 0.15 0.17 0.12 0.07 0.04 0.02
0.00 0.00 0.00 0.00 0.00 0.00 0.01 0.01 0.01 0.01 0.01 0.01 0.01 0.00 0.01 0.01 0.00 0.00 0.00 0.00 0.00 0.00 0.00 0.00 0.00 0.00 0.00 0.00 0.00 0.00 0.00 0.00 0.00 0.00 0.00 0.01 0.02 0.05 0.10 0.09 0.06 0.05 0.03
0.00 0.00 0.00 0.00 0.01 0.01 0.02 0.03 0.04 0.08 0.10 0.09 0.07 0.03 0.03 0.04 0.03 0.01 0.00 0.01 0.01 0.00 0.00 0.00 0.01 0.00 0.00 0.00 0.00 0.00 0.00 0.00 0.00 0.00 0.00 0.00 0.00 0.00 0.01 0.01 0.01 0.01 0.02
0.00 0.00 0.00 0.01 0.02 0.03 0.04 0.05 0.09 0.15 0.16 0.22 0.21 0.10 0.08 0.10 0.09 0.06 0.03 0.03 0.02 0.01 0.01 0.02 0.02 0.01 0.01 0.00 0.00 0.00 0.00 0.00 0.00 0.00 0.00 0.00 0.00 0.00 0.00 0.00 0.00 0.00 0.00
0.00 0.00 0.00 0.01 0.02 0.04 0.05 0.06 0.12 0.15 0.17 0.23 0.25 0.17 0.12 0.14 0.20 0.19 0.11 0.06 0.03 0.02 0.02 0.04 0.05 0.05 0.05 0.03 0.01 0.01 0.00 0.00 0.00 0.00 0.00 0.00 0.00 0.00 0.00 0.00 0.00 0.00 0.00
0.00 0.00 0.00 0.01 0.03 0.05 0.05 0.05 0.06 0.08 0.08 0.11 0.15 0.18 0.15 0.16 0.24 0.26 0.23 0.16 0.09 0.05 0.06 0.07 0.09 0.11 0.12 0.10 0.06 0.02 0.00 0.00 0.00 0.00 0.00 0.00 0.00 0.00 0.00 0.00 0.00 0.00 0.00
0.00 0.00 0.00 0.01 0.04 0.06 0.04 0.03 0.02 0.02 0.03 0.05 0.06 0.10 0.10 0.10 0.14 0.19 0.26 0.26 0.19 0.12 0.10 0.12 0.15 0.18 0.21 0.21 0.15 0.07 0.01 0.00 0.00 0.00 0.00 0.00 0.00 0.00 0.00 0.00 0.00 0.00 0.00
0.00 0.00 0.00 0.02 0.04 0.03 0.02 0.01 0.01 0.01 0.02 0.03 0.02 0.04 0.03 0.03 0.06 0.10 0.16 0.24 0.28 0.23 0.22 0.21 0.21 0.22 0.23 0.24 0.24 0.14 0.05 0.02 0.00 0.00 0.00 0.00 0.00 0.00 0.00 0.00 0.00 0.00 0.00
0.02 0.01 0.01 0.02 0.03 0.01 0.00 0.00 0.00 0.01 0.03 0.03 0.01 0.01 0.01 0.01 0.03 0.04 0.08 0.13 0.18 0.22 0.26 0.35 0.32 0.26 0.20 0.16 0.20 0.22 0.20 0.16 0.08 0.02 0.00 0.00 0.00 0.00 0.00 0.00 0.00 0.00 0.00
0.08 0.07 0.04 0.03 0.01 0.00 0.00 0.00 0.00 0.01 0.04 0.04 0.02 0.01 0.01 0.01 0.02 0.03 0.04 0.05 0.07 0.12 0.18 0.27 0.31 0.33 0.28 0.19 0.15 0.17 0.19 0.23 0.26 0.18 0.07 0.02 0.00 0.00 0.00 0.00 0.00 0.00 0.00
MSLP
1011.12 1010.81 1010.64 1010.64 1010.80 1011.05 1011.34 1011.57 1011.71 1011.74 1011.69 1011.62 1011.57 1011.62 1011.77 1012.02 1012.33 1012.64 1012.90 1013.06 1013.11 1013.05 1012.93 1012.79 1012.68 1012.61 1012.61 1012.66 1012.74 1012.83 1012.89 1012.93 1012.95 1012.95 1012.95 1012.96 1012.99 1013.04 1013.09 1013.14 1013.17 1013.19 1013.19
1010.79 1010.61 1010.57 1010.69 1010.93 1011.23 1011.51 1011.72 1011.83 1011.83 1011.77 1011.70 1011.70 1011.79 1012.00 1012.29 1012.63 1012.95 1013.19 1013.32 1013.35 1013.27 1013.15 1013.01 1012.90 1012.84 1012.83 1012.86 1012.90 1012.93 1012.95 1012.95 1012.94 1012.95 1012.97 1013.01 1013.08 1013.15 1013.22 1013.27 1013.28 1013.28 1013.26
1010.40 1010.33 1010.41 1010.63 1010.95 1011.30 1011.62 1011.83 1011.94 1011.94 1011.90 1011.86 1011.90 1012.03 1012.27 1012.57 1012.90 1013.18 1013.38 1013.47 1013.46 1013.38 1013.27 1013.16 1013.08 1013.05 1013.04 1013.06 1013.06 1013.05 1013.02 1012.99 1012.97 1012.98 1013.03 1013.11 1013.22 1013.32 1013.40 1013.45 1013.45 1013.43 1013.40
1010.00 1010.03 1010.20 1010.51 1010.90 1011.31 1011.65 1011.90 1012.02 1012.06 1012.04 1012.05 1012.13 1012.29 1012.53 1012.82 1013.10 1013.32 1013.46 1013.50 1013.46 1013.38 1013.29 1013.23 1013.21 1013.22 1013.25 1013.26 1013.25 1013.21 1013.15 1013.10 1013.06 1013.08 1013.16 1013.27 1013.41 1013.54 1013.63 1013.68 1013.67 1013.64 1013.61
1009.68 1009.77 1010.01 1010.38 1010.82 1011.27 1011.65 1011.92 1012.07 1012.14 1012.17 1012.23 1012.34 1012.52 1012.76 1013.01 1013.24 1013.39 1013.46 1013.44 1013.38 1013.31 1013.26 1013.26 1013.31 1013.38 1013.45 1013.49 1013.48 1013.42 1013.34 1013.26 1013.23 1013.25 1013.35 1013.49 1013.65 1013.79 1013.89 1013.93 1013.92 1013.89 1013.85
1009.51 1009.63 1009.90 1010.30 1010.77 1011.24 1011.63 1011.91 1012.08 1012.18 1012.26 1012.35 1012.50 1012.71 1012.94 1013.17 1013.34 1013.43 1013.43 1013.38 1013.30 1013.24 1013.24 1013.30 1013.42 1013.55 1013.67 1013.74 1013.73 1013.67 1013.57 1013.48 1013.45 1013.48 1013.58 1013.73 1013.90 1014.04 1014.14 1014.17 1014.16 1014.12 1014.10
1009.50 1009.63 1009.92 1010.33 1010.80 1011.25 1011.63 1011.90 1012.07 1012.19 1012.29 1012.42 1012.61 1012.84 1013.08 1013.29 1013.43 1013.48 1013.45 1013.36 1013.28 1013.24 1013.27 1013.39 1013.56 1013.75 1013.90 1013.98 1013.99 1013.92 1013.82 1013.73 1013.68 1013.72 1013.82 1013.97 1014.14 1014.27 1014.35 1014.37 1014.35 1014.31 1014.30
1009.64 1009.78 1010.07 1010.48 1010.92 1011.34 1011.67 1011.90 1012.05 1012.16 1012.28 1012.45 1012.67 1012.94 1013.21 1013.43 1013.57 1013.61 1013.55 1013.46 1013.37 1013.34 1013.40 1013.54 1013.74 1013.95 1014.12 1014.22 1014.22 1014.15 1014.05 1013.95 1013.91 1013.94 1014.04 1014.18 1014.33 1014.44 1014.49 1014.49 1014.46 1014.43 1014.44
1009.86 1010.02 1010.32 1010.71 1011.12 1011.48 1011.76 1011.93 1012.04 1012.13 1012.25 1012.44 1012.71 1013.02 1013.34 1013.60 1013.76 1013.81 1013.77 1013.67 1013.58 1013.56 1013.61 1013.76 1013.96 1014.16 1014.33 1014.41 1014.41 1014.34 1014.23 1014.14 1014.10 1014.13 1014.22 1014.34 1014.46 1014.54 1014.57 1014.55 1014.51 1014.48 1014.51
1010.07 1010.27 1010.59 1010.97 1011.35 1011.66 1011.87 1011.98 1012.04 1012.10 1012.22 1012.43 1012.74 1013.11 1013.47 1013.78 1013.99 1014.07 1014.05 1013.97 1013.88 1013.84 1013.88 1014.00 1014.17 1014.35 1014.49 1014.56 1014.55 1014.48 1014.38 1014.30 1014.26 1014.29 1014.37 1014.46 1014.55 1014.60 1014.60 1014.56 1014.51 1014.49 1014.53
1010.18 1010.43 1010.79 1011.19 1011.55 1011.82 1011.98 1012.04 1012.05 1012.09 1012.20 1012.43 1012.77 1013.18 1013.60 1013.96 1014.22 1014.34 1014.35 1014.28 1014.19 1014.14 1014.15 1014.24 1014.37 1014.51 1014.61 1014.66 1014.65 1014.58 1014.50 1014.43 1014.40 1014.43 1014.50 1014.58 1014.64 1014.65 1014.63 1014.57 1014.52 1014.51 1014.56
1010.13 1010.46 1010.87 1011.29 1011.66 1011.91 1012.04 1012.07 1012.06 1012.07 1012.19 1012.43 1012.80 1013.24 1013.70 1014.10 1014.39 1014.55 1014.58 1014.53 1014.44 1014.38 1014.37 1014.42 1014.51 1014.62 1014.70 1014.74 1014.73 1014.68 1014.62 1014.57 1014.57 1014.60 1014.65 1014.71 1014.74 1014.73 1014.68 1014.62 1014.57 1014.56 1014.63
1009.91 1010.30 1010.78 1011.24 1011.63 1011.89 1012.02 1012.04 1012.03 1012.05 1012.17 1012.42 1012.80 1013.26 1013.73 1014.15 1014.46 1014.64 1014.69 1014.66 1014.59 1014.52 1014.50 1014.54 1014.61 1014.71 1014.78 1014.83 1014.83 1014.81 1014.78 1014.76 1014.77 1014.80 1014.84 1014.88 1014.88 1014.85 1014.79 1014.72 1014.68 1014.68 1014.76
1009.52 1009.99 1010.51 1011.02 1011.44 1011.73 1011.88 1011.94 1011.95 1012.00 1012.14 1012.40 1012.78 1013.22 1013.69 1014.10 1014.40 1014.59 1014.65 1014.64 1014.59 1014.55 1014.55 1014.59 1014.68 1014.78 1014.88 1014.95 1014.99 1015.00 1015.00 1015.01 1015.03 1015.05 1015.08 1015.09 1015.07 1015.02 1014.95 1014.89 1014.85 1014.88 1014.96
1009.03 1009.54 1010.10 1010.64 1011.10 1011.43 1011.64 1011.75 1011.82 1011.91 1012.08 1012.35 1012.71 1013.13 1013.56 1013.93 1014.21 1014.39 1014.47 1014.49 1014.47 1014.48 1014.52 1014.61 1014.74 1014.88 1015.01 1015.12 1015.20 1015.26 1015.29 1015.32 1015.34 1015.35 1015.36 1015.34 1015.30 1015.23 1015.16 1015.10 1015.08 1015.12 1015.21
1008.49 1009.01 1009.59 1010.15 1010.64 1011.02 1011.29 1011.47 1011.62 1011.78 1011.99 1012.27 1012.61 1012.99 1013.36 1013.68 1013.93 1014.09 1014.18 1014.23 1014.28 1014.35 1014.46 1014.62 1014.81 1015.01 1015.20 1015.36 1015.48 1015.57 1015.63 1015.66 1015.68 1015.68 1015.66 1015.61 1015.54 1015.45 1015.38 1015.33 1015.34 1015.39 1015.50
1007.95 1008.46 1009.02 1009.59 1010.10 1010.53 1010.87 1011.14 1011.38 1011.61 1011.87 1012.16 1012.48 1012.81 1013.12 1013.38 1013.59 1013.74 1013.84 1013.94 1014.06 1014.21 1014.41 1014.65 1014.92 1015.18 1015.43 1015.64 1015.80 1015.91 1015.99 1016.03 1016.03 1016.01 1015.95 1015.87 1015.78 1015.68 1015.61 1015.57 1015.59 1015.67 1015.78
1007.45 1007.93 1008.46 1009.02 1009.54 1010.01 1010.43 1010.79 1011.12 1011.43 1011.73 1012.04 1012.34 1012.63 1012.87 1013.08 1013.25 1013.38 1013.52 1013.66 1013.85 1014.09 1014.38 1014.70 1015.04 1015.37 1015.66 1015.91 1016.10 1016.24 1016.33 1016.37 1016.37 1016.32 1016.25 1016.14 1016.02 1015.91 1015.84 1015.81 1015.85 1015.94 1016.06
1007.00 1007.44 1007.95 1008.48 1009.01 1009.52 1010.00 1010.45 1010.86 1011.24 1011.60 1011.92 1012.20 1012.44 1012.64 1012.80 1012.94 1013.07 1013.23 1013.43 1013.69 1014.00 1014.37 1014.76 1015.16 1015.53 1015.86 1016.14 1016.36 1016.52 1016.63 1016.68 1016.68 1016.63 1016.54 1016.42 1016.29 1016.17 1016.09 1016.06 1016.11 1016.21 1016.34
1006.62 1007.03 1007.50 1008.02 1008.55 1009.10 1009.63 1010.15 1010.63 1011.08 1011.47 1011.80 1012.07 1012.28 1012.43 1012.56 1012.67 1012.81 1012.99 1013.24 1013.55 1013.93 1014.35 1014.79 1015.22 1015.62 1015.98 1016.28 1016.52 1016.71 1016.85 1016.93 1016.96 1016.92 1016.84 1016.72 1016.59 1016.46 1016.38 1016.35 1016.39 1016.48 1016.61
1006.31 1006.70 1007.16 1007.67 1008.21 1008.78 1009.35 1009.92 1010.45 1010.94 1011.36 1011.69 1011.95 1012.13 1012.25 1012.35 1012.45 1012.60 1012.80 1013.08 1013.43 1013.84 1014.29 1014.74 1015.18 1015.59 1015.96 1016.28 1016.56 1016.79 1016.98 1017.11 1017.19 1017.21 1017.16 1017.07 1016.94 1016.81 1016.71 1016.67 1016.68 1016.76 1016.88
1006.11 1006.50 1006.95 1007.45 1008.00 1008.58 1009.18 1009.78 1010.34 1010.85 1011.27 1011.60 1011.83 1011.98 1012.08 1012.17 1012.27 1012.41 1012.63 1012.93 1013.29 1013.71 1014.15 1014.59 1015.02 1015.42 1015.79 1016.13 1016.44 1016.73 1016.99 1017.21 1017.38 1017.47 1017.48 1017.42 1017.32 1017.19 1017.07 1017.00 1016.99 1017.04 1017.13
1006.04 1006.43 1006.89 1007.39 1007.94 1008.52 1009.13 1009.73 1010.29 1010.79 1011.20 1011.51 1011.71 1011.85 1011.93 1012.00 1012.10 1012.25 1012.47 1012.76 1013.11 1013.51 1013.92 1014.32 1014.72 1015.09 1015.45 1015.81 1016.17 1016.53 1016.89 1017.21 1017.48 1017.66 1017.75 1017.75 1017.68 1017.55 1017.42 1017.32 1017.27 1017.28 1017.34
1006.13 1006.53 1006.98 1007.48 1008.02 1008.59 1009.18 1009.76 1010.30 1010.77 1011.14 1011.42 1011.60 1011.71 1011.78 1011.85 1011.94 1012.09 1012.30 1012.58 1012.90 1013.25 1013.61 1013.96 1014.30 1014.64 1014.99 1015.36 1015.77 1016.20 1016.64 1017.07 1017.45 1017.74 1017.92 1017.98 1017.94 1017.83 1017.69 1017.56 1017.47 1017.44 1017.47
1006.37 1006.77 1007.20 1007.68 1008.20 1008.74 1009.29 1009.83 1010.32 1010.75 1011.08 1011.33 1011.48 1011.58 1011.65 1011.71 1011.81 1011.95 1012.15 1012.40 1012.67 1012.97 1013.26 1013.54 1013.82 1014.11 1014.44 1014.82 1015.26 1015.75 1016.27 1016.79 1017.27 1017.66 1017.92 1018.05 1018.05 1017.96 1017.81 1017.65 1017.53 1017.48 1017.48
1006.75 1007.11 1007.51 1007.95 1008.43 1008.92 1009.42 1009.90 1010.34 1010.72 1011.01 1011.23 1011.37 1011.46 1011.53 1011.60 1011.70 1011.84 1012.03 1012.24 1012.47 1012.70 1012.92 1013.13 1013.35 1013.59 1013.88 1014.24 1014.69 1015.21 1015.79 1016.37 1016.92 1017.38 1017.71 1017.89 1017.94 1017.87 1017.74 1017.58 1017.45 1017.37 1017.37
Thickness
5799 5800 5798 5795 5793 5791 5788 5786 5784 5782 5781 5779 5776 5774 5773 5771 5769 5768 5767 5766 5765 5765 5764 5764 5764 5764 5766 5768 5770 5772 5773 5774 5774 5774 5775 5775 5775 5776 5777 5778 5778 5780 5782
5805 5802 5800 5797 5794 5792 5790 5787 5785 5783 5781 5778 5776 5774 5772 5770 5767 5766 5765 5764 5763 5763 5762 5762 5761 5761 5762 5764 5767 5769 5771 5771 5772 5773 5773 5773 5773 5774 5774 5775 5776 5778 5779
5806 5803 5800 5797 5794 5792 5790 5788 5787 5784 5781 5779 5776 5773 5771 5769 5767 5765 5763 5762 5761 5760 5760 5759 5758 5758 5758 5761 5764 5767 5768 5769 5771 5772 5772 5772 5772 5772 5772 5772 5774 5775 5776
5807 5803 5800 5797 5794 5791 5789 5787 5786 5784 5781 5779 5776 5772 5769 5767 5765 5763 5761 5760 5759 5757 5757 5756 5755 5754 5755 5757 5760 5764 5766 5768 5770 5771 5771 5771 5771 5771 5770 5771 5771 5772 5773
5807 5804 5800 5797 5793 5791 5789 5787 5785 5783 5780 5778 5775 5772 5768 5765 5763 5761 5759 5758 5757 5755 5754 5753 5752 5752 5752 5754 5757 5761 5764 5766 5768 5769 5769 5770 5770 5769 5769 5770 5769 5769 5769
5806 5803 5800 5797 5794 5791 5788 5787 5785 5783 5780 5777 5774 5771 5768 5764 5761 5759 5757 5756 5754 5753 5752 5750 5750 5750 5750 5752 5756 5759 5762 5764 5766 5766 5767 5768 5768 5768 5768 5768 5767 5766 5766
5804 5803 5800 5797 5794 5791 5789 5786 5784 5782 5780 5777 5773 5770 5766 5763 5760 5757 5756 5754 5752 5751 5750 5749 5748 5748 5749 5751 5754 5757 5761 5763 5763 5764 5764 5765 5766 5767 5767 5767 5766 5765 5765
5803 5801 5799 5797 5794 5792 5790 5787 5784 5782 5779 5776 5773 5769 5765 5762 5759 5756 5754 5752 5750 5749 5748 5748 5748 5747 5748 5751 5753 5755 5758 5760 5760 5761 5761 5762 5764 5765 5765 5765 5765 5764 5764
5803 5800 5798 5797 5795 5793 5791 5788 5786 5782 5779 5776 5772 5768 5765 5761 5757 5754 5752 5750 5749 5747 5747 5747 5747 5747 5748 5749 5751 5753 5755 5756 5757 5758 5759 5760 5761 5762 5763 5762 5762 5762 5762
5801 5800 5798 5796 5795 5793 5791 5789 5786 5782 5778 5774 5770 5767 5763 5760 5756 5752 5749 5748 5747 5746 5745 5745 5746 5746 5747 5748 5750 5752 5753 5754 5755 5756 5757 5758 5759 5760 5760 5760 5760 5760 5760
5797 5797 5797 5795 5793 5792 5790 5788 5785 5781 5778 5773 5769 5765 5762 5758 5754 5751 5748 5747 5746 5745 5744 5743 5743 5744 5745 5746 5748 5750 5751 5751 5753 5754 5756 5757 5758 5758 5758 5758 5758 5758 5757
5792 5794 5794 5793 5792 5791 5790 5788 5784 5780 5777 5773 5769 5764 5760 5757 5753 5750 5747 5746 5745 5743 5742 5741 5742 5742 5743 5743 5744 5745 5747 5748 5750 5752 5754 5755 5756 5756 5756 5756 5755 5755 5755
5796 5795 5794 5792 5791 5790 5789 5786 5783 5779 5776 5771 5767 5762 5758 5755 5751 5748 5746 5744 5743 5742 5740 5739 5739 5739 5739 5739 5740 5741 5743 5745 5747 5749 5751 5753 5753 5754 5754 5753 5753 5752 5752
5798 5797 5796 5794 5790 5788 5787 5784 5781 5778 5774 5770 5765 5761 5756 5753 5749 5746 5743 5742 5741 5740 5738 5736 5735 5737 5737 5737 5737 5738 5738 5740 5742 5745 5747 5749 5750 5750 5750 5750 5749 5749 5750
5800 5799 5797 5795 5790 5787 5784 5782 5779 5776 5773 5769 5765 5760 5756 5752 5749 5746 5743 5740 5739 5738 5736 5733 5732 5733 5733 5732 5733 5733 5733 5734 5736 5738 5741 5743 5744 5745 5745 5745 5745 5746 5746
5803 5800 5798 5794 5790 5786 5783 5780 5777 5774 5771 5768 5765 5761 5757 5753 5749 5746 5742 5739 5738 5737 5735 5732 5730 5729 5729 5728 5727 5728 5728 5729 5729 5731 5733 5736 5737 5738 5739 5739 5740 5741 5741
5806 5803 5799 5795 5790 5785 5781 5778 5776 5773 5770 5767 5765 5761 5758 5754 5750 5746 5742 5738 5736 5735 5732 5729 5727 5727 5725 5723 5722 5722 5723 5723 5723 5724 5726 5728 5730 5731 5732 5733 5734 5735 5736
5808 5804 5801 5797 5790 5785 5781 5777 5774 5772 5769 5767 5764 5761 5758 5754 5750 5746 5742 5739 5736 5733 5730 5727 5724 5722 5720 5717 5715 5715 5717 5717 5717 5718 5719 5720 5722 5724 5725 5726 5728 5729 5730
5809 5805 5800 5798 5791 5786 5782 5776 5773 5769 5766 5764 5761 5759 5756 5753 5750 5746 5742 5740 5736 5732 5729 5725 5722 5719 5713 5711 5710 5710 5710 5711 5712 5713 5712 5713 5714 5717 5719 5720 5721 5723 5724
5808 5803 5799 5796 5791 5785 5779 5773 5768 5765 5763 5761 5758 5755 5753 5750 5747 5744 5741 5738 5734 5730 5726 5722 5718 5715 5710 5707 5706 5703 5703 5705 5707 5708 5708 5708 5708 5710 5712 5713 5715 5717 5718
5804 5799 5794 5790 5786 5781 5773 5767 5762 5759 5758 5756 5755 5753 5750 5746 5742 5739 5736 5733 5731 5727 5723 5719 5714 5710 5705 5702 5697 5693 5694 5697 5700 5703 5703 5703 5703 5705 5706 5707 5709 5711 5712
5799 5796 5792 5787 5782 5778 5773 5768 5764 5760 5756 5754 5752 5749 5746 5743 5739 5736 5732 5728 5726 5723 5719 5716 5711 5705 5701 5699 5693 5685 5681 5684 5692 5697 5698 5698 5699 5701 5702 5702 5704 5705 5707
5795 5793 5789 5783 5778 5773 5769 5764 5759 5754 5751 5747 5745 5743 5742 5739 5736 5732 5729 5724 5720 5717 5713 5711 5709 5704 5697 5694 5693 5686 5677 5674 5682 5690 5693 5694 5695 5697 5698 5699 5699 5700 5702
5791 5789 5783 5777 5773 5769 5766 5761 5756 5750 5744 5743 5742 5740 5738 5735 5731 5727 5724 5720 5716 5712 5708 5706 5706 5703 5698 5690 5688 5689 5687 5684 5680 5680 5686 5690 5691 5692 5694 5696 5696 5697 5698
5780 5778 5773 5769 5766 5764 5762 5759 5753 5748 5744 5741 5737 5734 5730 5728 5725 5723 5719 5715 5711 5707 5704 5702 5700 5698 5696 5691 5687 5684 5683 5683 5684 5680 5678 5683 5686 5689 5691 5693 5694 5694 5695
5762 5760 5759 5759 5757 5757 5755 5753 5749 5743 5738 5734 5730 5726 5723 5721 5719 5717 5714 5711 5707 5703 5700 5698 5697 5694 5693 5690 5687 5683 5680 5679 5679 5679 5677 5678 5680 5685 5688 5690 5691 5692 5693